20050106,000005,174984,32.042433,-119.175758,4.8,15.772,33.160,41.619,721.83,0.0,1.633,15.682,15.656, NaN,24.384,   NaN,13.56,1021.74,60.26,13.83,5.5,4.9,6.5,6.8,256.6,254.5,2.2,1.8,NaN, NaN,15.1,241.8,242.5,1104969605,1104969605,1,9.7,000004,000005,237.7,32.042455,-119.175667,0.16,NaN,NaN,15.776, NaN,NaN,NaN, NaN, NaN
20050106,000035,175014,32.041680,-119.177210,4.7,15.789,33.150,41.624,730.78,0.0,1.614,15.668,15.642, NaN,24.372,   NaN,13.55,1021.73,60.48,13.83,11.1,8.7,6.8,7.1,273.1,265.2,2.2,2.2,NaN, NaN,16.4,236.7,237.0,1104969635,1104969635,1,10.4,000035,000035,237.7,32.041717,-119.177075,0.05,NaN,NaN,15.793, NaN,NaN,NaN, NaN, NaN
20050106,000105,175043,32.040957,-119.178623,4.9,15.810,33.137,41.629,784.40,0.0,1.595,15.656,15.630, NaN,24.358,   NaN,13.55,1021.73,60.31,13.82,8.3,9.7,6.7,7.1,268.9,268.8,1.8,2.1,NaN, NaN,16.1,233.7,240.3,1104969666,1104969665,1,9.7,000065,000065,237.7,32.040993,-119.178482,0.12,NaN,NaN,15.814, NaN,NaN,NaN, NaN, NaN
20050106,000135,175073,32.040255,-119.179988,5.0,15.796,33.160,41.642,556.34,0.0,1.671,15.650,15.622, NaN,24.378,   NaN,13.53,1021.72,60.05,13.77,3.5,6.5,6.5,6.9,251.6,259.9,1.5,1.9,NaN, NaN,15.6,242.4,238.7,1104969695,1104969695,1,10.4,000094,000095,237.7,32.040268,-119.179890,-0.01,NaN,NaN,15.800, NaN,NaN,NaN, NaN, NaN
20050106,000206,175105,32.039497,-119.181453,4.9,15.790,33.175,41.653,529.31,0.0,1.633,15.653,15.626, NaN,24.391,   NaN,13.48,1021.76,59.79,13.72,3.1,6.2,6.3,6.6,249.6,260.6,1.3,1.6,NaN, NaN,16.3,235.2,237.8,1104969726,1104969725,1,10.1,000125,000125,237.8,32.039528,-119.181307,0.03,NaN,NaN,15.794, NaN,NaN,NaN, NaN, NaN
20050106,000235,175134,32.038770,-119.182873,5.0,15.802,33.173,41.662,520.35,0.0,1.652,15.655,15.633, NaN,24.387,   NaN,13.45,1021.77,59.52,13.71,4.6,7.1,6.1,6.3,262.0,269.5,1.2,1.4,NaN, NaN,16.2,245.6,243.0,1104969755,1104969755,1,10.3,000155,000155,237.7,32.038795,-119.182728,0.06,NaN,NaN,15.806, NaN,NaN,NaN, NaN, NaN
20050106,000306,175164,32.038008,-119.184320,4.9,15.828,33.159,41.670,546.05,0.0,1.576,15.653,15.626, NaN,24.371,   NaN,13.43,1021.75,59.35,13.70,5.6,8.2,6.0,6.3,271.0,276.2,1.2,1.5,NaN, NaN,16.7,236.7,237.8,1104969786,1104969786,1,10.1,000186,000186,237.7,32.038043,-119.184178,-0.05,NaN,NaN,15.832, NaN,NaN,NaN, NaN, NaN
20050106,000335,175194,32.037300,-119.185698,4.9,15.813,33.175,41.676,638.05,0.0,1.576,15.653,15.626, NaN,24.386,   NaN,13.43,1021.76,59.40,13.68,7.7,9.6,6.4,6.7,272.2,275.7,1.5,1.8,NaN, NaN,16.0,245.5,240.9,1104969816,1104969815,1,10.2,000215,000215,237.5,32.037332,-119.185550,-0.07,NaN,NaN,15.817, NaN,NaN,NaN, NaN, NaN
20050106,000406,175225,32.036545,-119.187155,4.7,15.815,33.179,41.681,846.44,0.0,1.614,15.660,15.635, NaN,24.389,   NaN,13.45,1021.75,59.54,13.75,8.2,9.2,6.4,6.7,272.5,271.3,2.0,1.8,NaN, NaN,15.4,238.7,237.9,1104969846,1104969846,1,10.3,000246,000246,237.3,32.036575,-119.187003,-0.07,NaN,NaN,15.819, NaN,NaN,NaN, NaN, NaN
20050106,000436,175255,32.035827,-119.188510,4.9,15.816,33.183,41.687,1376.17,0.0,1.539,15.668,15.643, NaN,24.392,   NaN,13.50,1021.77,59.10,13.80,9.8,8.7,6.2,6.5,279.9,273.3,2.0,1.6,NaN, NaN,16.1,240.6,237.4,1104969876,1104969875,1,10.2,000275,000275,237.5,32.035870,-119.188360,0.27,NaN,NaN,15.820, NaN,NaN,NaN, NaN, NaN
20050106,000506,175284,32.035115,-119.189925,5.0,15.818,33.186,41.692,1484.85,0.0,1.501,15.673,15.647, NaN,24.393,   NaN,13.62,1021.73,58.99,13.85,9.9,9.1,6.0,6.4,278.6,275.6,1.4,1.5,NaN, NaN,15.8,236.9,239.0,1104969906,1104969906,1,10.4,000305,000306,237.8,32.035122,-119.189822,0.35,NaN,NaN,15.822, NaN,NaN,NaN, NaN, NaN
20050106,000535,175314,32.034387,-119.191315,4.9,15.823,33.186,41.696,1470.72,0.0,1.539,15.673,15.648, NaN,24.392,   NaN,13.70,1021.79,59.21,13.92,7.1,7.7,6.0,6.5,273.2,269.4,1.2,1.6,NaN, NaN,15.0,239.8,238.2,1104969936,1104969935,1,10.1,000335,000335,238.0,32.034418,-119.191165,0.13,NaN,NaN,15.827, NaN,NaN,NaN, NaN, NaN
20050106,000606,175344,32.033677,-119.192678,4.9,15.823,33.188,41.699,1443.85,0.0,1.520,15.663,15.638, NaN,24.394,   NaN,13.72,1021.81,58.84,13.92,6.2,6.7,6.1,6.8,264.3,262.8,1.4,1.8,NaN, NaN,14.9,239.9,240.1,1104969966,1104969966,1,10.0,000365,000366,238.6,32.033687,-119.192573,0.26,NaN,NaN,15.827, NaN,NaN,NaN, NaN, NaN
20050106,000636,175375,32.032977,-119.194060,4.8,15.811,33.202,41.703,1424.16,0.0,1.520,15.659,15.633, NaN,24.407,   NaN,13.71,1021.82,58.46,13.91,3.4,7.6,6.0,6.5,258.9,267.0,2.0,1.7,NaN, NaN,16.0,229.9,240.4,1104969995,1104969995,1,10.0,000395,000395,237.3,32.033007,-119.193912,0.10,NaN,NaN,15.815, NaN,NaN,NaN, NaN, NaN
20050106,000706,175405,32.032230,-119.195477,4.9,15.801,33.213,41.706,1408.80,0.0,1.482,15.657,15.632, NaN,24.418,   NaN,13.71,1021.87,58.18,13.92,6.6,8.6,5.6,6.1,298.2,281.8,1.9,1.4,NaN, NaN,16.1,245.4,239.6,1104970026,1104970026,1,9.7,000426,000426,238.3,32.032258,-119.195323,0.02,NaN,NaN,15.805, NaN,NaN,NaN, NaN, NaN
20050106,000735,175433,32.031535,-119.196827,4.8,15.818,33.198,41.705,1399.24,0.0,1.444,15.664,15.638, NaN,24.403,   NaN,13.72,1021.85,58.17,13.94,6.6,6.4,5.6,6.1,284.2,272.3,1.1,1.3,NaN, NaN,16.7,245.4,237.2,1104970056,1104970055,1,10.0,000455,000455,237.5,32.031568,-119.196675,0.27,NaN,NaN,15.822, NaN,NaN,NaN, NaN, NaN
20050106,000806,175464,32.030818,-119.198195,5.0,15.818,33.197,41.704,1390.35,0.0,1.482,15.671,15.645, NaN,24.402,   NaN,13.72,1021.86,58.05,13.95,2.5,4.6,5.7,6.0,253.6,264.2,1.0,1.1,NaN, NaN,16.9,235.1,234.5,1104970086,1104970086,1,9.9,000485,000486,238.3,32.030822,-119.198085,-0.07,NaN,NaN,15.822, NaN,NaN,NaN, NaN, NaN
20050106,000836,175494,32.030108,-119.199603,4.9,15.818,33.197,41.704,1378.91,0.0,1.425,15.672,15.645, NaN,24.402,   NaN,13.73,1021.90,58.14,13.98,1.2,5.2,5.6,5.9,236.3,266.0,0.9,1.1,NaN, NaN,16.6,231.4,237.0,1104970116,1104970115,1,9.9,000515,000515,237.7,32.030138,-119.199450,0.08,NaN,NaN,15.822, NaN,NaN,NaN, NaN, NaN
20050106,000906,175524,32.029343,-119.201065,4.9,15.834,33.186,41.707,1373.76,0.0,1.425,15.669,15.644, NaN,24.390,   NaN,13.73,1021.93,58.12,13.99,0.1,3.7,6.0,6.3,237.6,253.5,1.1,1.3,NaN, NaN,15.4,240.5,235.5,1104970146,1104970146,1,10.3,000546,000546,238.1,32.029375,-119.200908,0.22,NaN,NaN,15.838, NaN,NaN,NaN, NaN, NaN
20050106,000936,175555,32.028620,-119.202480,5.0,15.821,33.197,41.708,1353.46,0.0,1.463,15.657,15.634, NaN,24.402,   NaN,13.74,1021.90,58.06,13.98,0.6,4.5,6.0,6.4,244.8,257.0,1.1,1.3,NaN, NaN,18.0,236.7,238.0,1104970176,1104970176,1,10.1,000576,000576,237.8,32.028653,-119.202325,0.08,NaN,NaN,15.825, NaN,NaN,NaN, NaN, NaN
20050106,001006,175585,32.027883,-119.203897,4.9,15.794,33.221,41.709,922.52,0.0,1.463,15.651,15.624, NaN,24.426,   NaN,13.74,1021.90,58.58,14.01,5.2,7.0,6.4,6.6,259.8,265.4,1.4,1.5,NaN, NaN,16.3,237.7,234.7,1104970206,1104970206,1,9.9,000606,000606,238.0,32.027920,-119.203747,0.17,NaN,NaN,15.798, NaN,NaN,NaN, NaN, NaN
20050106,001036,175614,32.027200,-119.205235,4.9,15.769,33.243,41.710,812.27,0.0,1.501,15.640,15.612, NaN,24.449,   NaN,13.67,1021.89,58.81,13.97,8.2,9.1,6.6,6.8,267.6,269.3,1.7,1.9,NaN, NaN,16.2,244.6,239.2,1104970236,1104970236,1,9.0,000635,000636,240.0,32.027212,-119.205123,0.01,NaN,NaN,15.773, NaN,NaN,NaN, NaN, NaN
20050106,001106,175644,32.026755,-119.206268,4.4,15.773,33.239,41.709,1066.92,0.0,1.501,15.629,15.600, NaN,24.444,   NaN,13.65,1021.95,58.50,13.95,10.9,11.2,5.5,5.8,278.6,273.6,1.5,1.8,NaN, NaN,16.1,259.7,250.0,1104970266,1104970266,1,5.9,000665,000666,241.3,32.026773,-119.206137,-0.16,NaN,NaN,15.777, NaN,NaN,NaN, NaN, NaN
20050106,001136,175674,32.026413,-119.207002,4.5,15.731,33.270,41.705,1149.75,0.0,1.539,15.615,15.586, NaN,24.478,   NaN,13.71,1021.93,58.35,13.99,11.3,12.2,4.0,4.4,283.4,271.8,1.3,1.6,NaN, NaN,16.5,248.6,231.3,1104970297,1104970296,1,4.3,000696,000696,237.2,32.026457,-119.206850,0.18,NaN,NaN,15.735, NaN,NaN,NaN, NaN, NaN
20050106,001206,175705,32.026158,-119.207570,4.3,15.724,33.268,41.695,1141.75,0.0,1.482,15.604,15.578, NaN,24.478,   NaN,13.75,1021.97,58.06,14.00,14.4,15.5,3.0,3.5,286.4,270.6,1.1,1.5,NaN, NaN,15.9,186.2,228.1,1104970326,1104970326,1,3.7,000726,000726,237.2,32.026195,-119.207412,0.00,NaN,NaN,15.728, NaN,NaN,NaN, NaN, NaN
20050106,001236,175735,32.025960,-119.208075,4.4,15.746,33.244,41.689,1099.45,0.0,1.501,15.598,15.568, NaN,24.454,   NaN,13.80,1021.95,57.93,14.01,16.4,13.5,2.6,3.0,281.4,260.9,1.0,1.4,NaN, NaN,15.1,242.5,263.4,1104970356,1104970356,1,3.8,000756,000756,238.1,32.025985,-119.207907,0.00,NaN,NaN,15.750, NaN,NaN,NaN, NaN, NaN
20050106,001306,175765,32.025740,-119.208498,4.4,15.740,33.243,41.682,787.88,0.0,1.463,15.591,15.561, NaN,24.455,   NaN,13.80,1021.90,57.73,13.99,15.2,6.5,2.4,2.8,278.9,240.5,1.0,1.4,NaN, NaN,15.6,281.3,254.8,1104970386,1104970386,1,3.4,000786,000786,231.0,32.025782,-119.208337,0.04,NaN,NaN,15.744, NaN,NaN,NaN, NaN, NaN
20050106,001336,175794,32.025517,-119.208860,4.4,15.748,33.225,41.669,865.83,0.0,1.482,15.583,15.554, NaN,24.439,   NaN,13.82,1021.93,58.00,14.02,15.6,8.2,2.0,2.5,294.0,246.0,0.9,1.2,NaN, NaN,16.7,235.4,222.3,1104970416,1104970416,1,2.6,000815,000816,232.2,32.025555,-119.208710,-0.01,NaN,NaN,15.752, NaN,NaN,NaN, NaN, NaN
20050106,001407,175826,32.025325,-119.209262,4.3,15.748,33.220,41.664,706.21,0.0,1.482,15.580,15.551, NaN,24.435,   NaN,13.84,1021.92,58.24,14.06,19.1,15.2,2.0,2.4,290.6,260.0,0.9,1.2,NaN, NaN,16.0,272.0,236.4,1104970447,1104970446,1,2.5,000846,000846,234.3,32.025352,-119.209098,-0.10,NaN,NaN,15.752, NaN,NaN,NaN, NaN, NaN
20050106,001436,175854,32.025128,-119.209622,4.1,15.753,33.212,41.659,456.63,0.0,1.482,15.576,15.548, NaN,24.428,   NaN,13.80,1021.89,58.16,13.99,17.7,13.0,1.9,2.3,296.1,254.2,0.9,1.1,NaN, NaN,15.7,267.5,249.2,1104970476,1104970476,1,2.8,000875,000876,231.3,32.025163,-119.209483,-0.07,NaN,NaN,15.757, NaN,NaN,NaN, NaN, NaN
20050106,001506,175885,32.024938,-119.210008,4.5,15.765,33.197,41.654,393.47,0.0,1.482,15.575,15.551, NaN,24.413,   NaN,13.76,1021.89,58.24,13.96,1.9,357.9,1.6,2.1,262.6,215.2,0.7,0.9,NaN, NaN,14.5,230.9,255.5,1104970507,1104970506,1,2.8,000906,000906,234.4,32.024965,-119.209847,-0.19,NaN,NaN,15.769, NaN,NaN,NaN, NaN, NaN
20050106,001536,175915,32.024753,-119.210372,4.3,15.748,33.209,41.652,392.24,0.0,1.539,15.576,15.549, NaN,24.427,   NaN,13.71,1021.93,58.17,13.92,0.2,358.5,1.8,2.1,230.0,221.6,0.7,0.9,NaN, NaN,16.0,255.9,255.0,1104970537,1104970536,1,2.6,000936,000936,232.3,32.024783,-119.210223,0.03,NaN,NaN,15.752, NaN,NaN,NaN, NaN, NaN
20050106,001606,175945,32.024550,-119.210710,4.3,15.723,33.230,41.652,489.12,0.0,1.539,15.575,15.549, NaN,24.449,   NaN,13.69,1021.92,58.20,13.93,10.6,6.3,1.7,2.1,264.5,239.3,0.6,0.9,NaN, NaN,15.8,251.5,235.3,1104970566,1104970566,1,2.5,000965,000966,227.9,32.024597,-119.210578,0.05,NaN,NaN,15.727, NaN,NaN,NaN, NaN, NaN
20050106,001636,175974,32.024350,-119.211067,4.2,15.741,33.215,41.652,456.72,0.0,1.482,15.581,15.554, NaN,24.433,   NaN,13.68,1021.90,58.52,13.93,14.1,8.0,1.7,2.2,272.9,237.8,0.7,1.0,NaN, NaN,15.9,186.1,230.3,1104970596,1104970596,1,2.6,000996,000996,230.3,32.024390,-119.210920,-0.13,NaN,NaN,15.745, NaN,NaN,NaN, NaN, NaN
20050106,001706,176004,32.024168,-119.211405,4.2,15.764,33.193,41.649,507.84,0.0,1.482,15.589,15.563, NaN,24.411,   NaN,13.65,1021.92,58.48,13.91,6.6,3.4,2.0,2.5,229.0,230.2,0.9,1.3,NaN, NaN,15.9,284.7,263.7,1104970626,1104970626,1,2.7,001025,001026,231.3,32.024210,-119.211268,-0.18,NaN,NaN,15.768, NaN,NaN,NaN, NaN, NaN
20050106,001736,176034,32.023960,-119.211743,4.3,15.811,33.151,41.646,448.59,0.0,1.501,15.603,15.577, NaN,24.368,   NaN,13.62,1021.91,58.26,13.85,3.4,357.6,2.0,2.3,224.0,221.8,0.9,1.1,NaN, NaN,16.2,248.4,227.7,1104970657,1104970656,1,2.4,001056,001056,231.0,32.024015,-119.211600,-0.08,NaN,NaN,15.815, NaN,NaN,NaN, NaN, NaN
20050106,001806,176065,32.023780,-119.212078,4.3,15.820,33.147,41.650,385.89,0.0,1.501,15.608,15.582, NaN,24.363,   NaN,13.60,1021.93,58.27,13.86,9.5,357.8,2.0,2.2,248.0,223.4,0.9,1.0,NaN, NaN,15.0,278.2,220.9,1104970686,1104970686,1,2.5,001086,001086,231.3,32.023827,-119.211937,-0.04,NaN,NaN,15.824, NaN,NaN,NaN, NaN, NaN
20050106,001836,176095,32.023597,-119.212417,4.4,15.829,33.141,41.652,342.51,0.0,1.482,15.610,15.584, NaN,24.357,   NaN,13.60,1021.91,58.74,13.87,11.0,5.7,2.2,2.5,250.0,239.8,1.1,1.5,NaN, NaN,15.9,252.6,227.4,1104970717,1104970716,1,2.7,001116,001116,231.3,32.023643,-119.212278,-0.06,NaN,NaN,15.833, NaN,NaN,NaN, NaN, NaN
20050106,001906,176124,32.023430,-119.212780,4.2,15.833,33.144,41.659,293.63,0.0,1.501,15.613,15.585, NaN,24.358,   NaN,13.58,1021.93,59.06,13.86,24.2,23.4,2.5,2.8,271.7,269.7,1.5,1.7,NaN, NaN,15.7,217.7,251.2,1104970747,1104970746,1,2.6,001146,001146,229.3,32.023473,-119.212635,-0.11,NaN,NaN,15.837, NaN,NaN,NaN, NaN, NaN
20050106,001936,176154,32.023223,-119.213115,4.3,15.835,33.152,41.669,274.80,0.0,1.501,15.611,15.584, NaN,24.364,   NaN,13.56,1021.96,59.57,13.90,35.7,34.5,2.6,2.5,289.2,289.7,1.6,1.6,NaN, NaN,15.5,262.3,246.7,1104970776,1104970776,1,2.4,001176,001176,230.0,32.023273,-119.212967,0.03,NaN,NaN,15.839, NaN,NaN,NaN, NaN, NaN
20050106,002006,176184,32.023023,-119.213453,4.2,15.832,33.167,41.684,264.98,0.0,1.501,15.610,15.583, NaN,24.376,   NaN,13.56,1021.94,60.04,13.89,35.0,32.8,2.5,2.6,291.2,285.9,1.5,1.6,NaN, NaN,15.5,193.5,220.8,1104970807,1104970806,1,2.7,001206,001206,231.2,32.023073,-119.213312,-0.20,NaN,NaN,15.836, NaN,NaN,NaN, NaN, NaN
20050106,002036,176215,32.022753,-119.213898,4.5,15.842,33.166,41.691,256.98,0.0,1.539,15.608,15.582, NaN,24.373,   NaN,13.53,1021.92,60.09,13.89,31.1,29.5,2.9,3.2,284.5,277.4,1.8,2.0,NaN, NaN,16.4,235.1,232.3,1104970837,1104970836,1,4.1,001236,001236,230.8,32.022802,-119.213757,-0.05,NaN,NaN,15.846, NaN,NaN,NaN, NaN, NaN
20050106,002106,176245,32.022395,-119.214472,4.6,15.844,33.172,41.700,251.33,0.0,1.520,15.603,15.576, NaN,24.377,   NaN,13.50,1021.97,60.10,13.83,31.6,32.1,3.5,3.7,289.4,288.2,2.0,2.3,NaN, NaN,16.4,244.2,235.7,1104970867,1104970866,1,4.5,001266,001266,230.7,32.022437,-119.214327,0.07,NaN,NaN,15.848, NaN,NaN,NaN, NaN, NaN
20050106,002136,176275,32.021998,-119.215118,4.4,15.845,33.178,41.708,248.73,0.0,1.501,15.594,15.566, NaN,24.381,   NaN,13.45,1021.94,59.70,13.79,35.6,39.5,3.7,3.4,304.5,315.9,2.2,2.1,NaN, NaN,17.5,230.0,231.4,1104970896,1104970896,1,4.8,001296,001296,232.7,32.022035,-119.214970,-0.05,NaN,NaN,15.849, NaN,NaN,NaN, NaN, NaN
20050106,002206,176304,32.021592,-119.215808,4.3,15.845,33.185,41.716,247.20,0.0,1.520,15.586,15.559, NaN,24.387,   NaN,13.43,1021.93,59.38,13.74,36.1,39.6,3.9,3.5,308.1,320.2,2.3,2.2,NaN, NaN,14.2,238.5,235.5,1104970926,1104970926,1,4.9,001326,001326,232.2,32.021637,-119.215657,-0.15,NaN,NaN,15.849, NaN,NaN,NaN, NaN, NaN
20050106,002237,176336,32.021177,-119.216507,4.4,15.826,33.203,41.719,245.63,0.0,1.557,15.583,15.554, NaN,24.405,   NaN,13.39,1021.94,58.87,13.70,37.1,40.6,3.8,3.6,312.5,321.5,2.3,2.3,NaN, NaN,13.7,246.1,243.1,1104970957,1104970957,1,5.2,001356,001357,232.7,32.021210,-119.216382,0.01,NaN,NaN,15.830, NaN,NaN,NaN, NaN, NaN
20050106,002307,176366,32.020762,-119.217250,4.6,15.806,33.225,41.724,244.41,0.0,1.557,15.582,15.554, NaN,24.426,   NaN,13.39,1021.97,58.88,13.70,35.1,38.2,3.5,3.5,320.8,325.1,2.0,2.1,NaN, NaN,14.0,255.8,246.0,1104970987,1104970986,1,6.1,001386,001386,237.0,32.020790,-119.217092,-0.04,NaN,NaN,15.810, NaN,NaN,NaN, NaN, NaN
20050106,002337,176395,32.020277,-119.218245,4.6,15.776,33.252,41.726,242.72,0.0,1.576,15.585,15.557, NaN,24.454,   NaN,13.42,1021.91,59.49,13.74,27.1,26.9,3.9,4.2,318.5,308.9,1.7,2.0,NaN, NaN,14.2,237.2,246.2,1104971017,1104971017,1,7.2,001417,001417,240.0,32.020300,-119.218085,-0.13,NaN,NaN,15.780, NaN,NaN,NaN, NaN, NaN
20050106,002407,176425,32.019787,-119.219287,4.6,15.781,33.246,41.724,240.34,0.0,1.557,15.592,15.565, NaN,24.448,   NaN,13.44,1021.95,59.93,13.76,18.5,17.6,4.5,4.9,306.2,294.9,1.5,1.8,NaN, NaN,14.2,238.1,240.0,1104971047,1104971047,1,7.6,001446,001447,239.8,32.019782,-119.219160,0.03,NaN,NaN,15.785, NaN,NaN,NaN, NaN, NaN
20050106,002436,176455,32.019225,-119.220448,4.9,15.778,33.243,41.718,237.47,0.0,1.708,15.602,15.577, NaN,24.446,   NaN,13.42,1021.92,59.53,13.71,11.4,10.8,4.8,5.1,293.9,280.2,1.3,1.4,NaN, NaN,13.6,248.4,244.2,1104971077,1104971076,1,8.5,001476,001476,240.9,32.019237,-119.220285,0.09,NaN,NaN,15.782, NaN,NaN,NaN, NaN, NaN
20050106,002507,176486,32.018632,-119.221800,4.9,15.791,33.224,41.710,233.23,0.0,1.520,15.606,15.580, NaN,24.429,   NaN,13.40,1021.93,59.28,13.70,6.5,7.2,4.9,5.3,293.0,280.2,1.0,1.2,NaN, NaN,13.6,252.2,246.8,1104971107,1104971107,1,9.4,001507,001507,244.0,32.018640,-119.221638,0.09,NaN,NaN,15.795, NaN,NaN,NaN, NaN, NaN
20050106,002537,176516,32.018072,-119.223170,4.8,15.804,33.209,41.704,228.57,0.0,1.539,15.608,15.581, NaN,24.414,   NaN,13.39,1021.96,59.20,13.69,4.2,7.5,4.8,5.2,326.9,299.0,0.9,1.0,NaN, NaN,13.5,249.5,247.2,1104971137,1104971137,1,9.5,001537,001537,244.3,32.018087,-119.223010,0.05,NaN,NaN,15.808, NaN,NaN,NaN, NaN, NaN
20050106,002607,176545,32.017512,-119.224568,5.0,15.793,33.214,41.699,223.22,0.0,1.557,15.601,15.573, NaN,24.421,   NaN,13.39,1021.89,59.42,13.70,7.1,10.0,4.8,5.2,335.5,313.9,0.9,1.1,NaN, NaN,13.4,254.1,245.4,1104971167,1104971167,1,9.5,001567,001567,244.3,32.017527,-119.224402,0.08,NaN,NaN,15.797, NaN,NaN,NaN, NaN, NaN
20050106,002637,176575,32.016965,-119.225927,4.8,15.780,33.222,41.696,217.71,0.0,1.539,15.589,15.562, NaN,24.430,   NaN,13.39,1021.90,59.48,13.70,14.4,15.8,5.4,5.8,316.9,312.9,1.5,1.8,NaN, NaN,14.2,246.1,246.2,1104971197,1104971196,1,9.6,001596,001596,244.3,32.016982,-119.225762,-0.23,NaN,NaN,15.784, NaN,NaN,NaN, NaN, NaN
20050106,002708,176607,32.016383,-119.227382,4.8,15.742,33.252,41.694,211.44,0.0,1.576,15.584,15.555, NaN,24.461,   NaN,13.39,1021.88,59.40,13.69,19.9,20.3,6.0,6.6,314.6,305.7,2.2,2.6,NaN, NaN,14.1,253.2,245.0,1104971228,1104971227,1,9.6,001627,001627,248.7,32.016390,-119.227220,0.15,NaN,NaN,15.746, NaN,NaN,NaN, NaN, NaN
20050106,002738,176636,32.015960,-119.228685,4.4,15.759,33.236,41.692,205.97,0.0,1.539,15.588,15.563, NaN,24.445,   NaN,13.38,1021.92,59.54,13.69,19.5,20.0,6.0,6.5,310.0,303.7,2.2,2.6,NaN, NaN,14.8,247.9,250.2,1104971257,1104971257,1,7.0,001657,001657,248.5,32.015962,-119.228523,0.02,NaN,NaN,15.763, NaN,NaN,NaN, NaN, NaN
20050106,002808,176666,32.015692,-119.229505,4.4,15.774,33.218,41.686,199.56,0.0,1.520,15.589,15.563, NaN,24.428,   NaN,13.37,1021.92,59.32,13.66,23.4,24.7,4.6,4.9,318.1,316.5,1.9,2.1,NaN, NaN,15.3,263.8,248.9,1104971288,1104971287,1,4.6,001687,001687,249.2,32.015702,-119.229340,0.04,NaN,NaN,15.778, NaN,NaN,NaN, NaN, NaN
20050106,002837,176696,32.015530,-119.230090,4.3,15.787,33.203,41.681,194.14,0.0,1.520,15.586,15.558, NaN,24.413,   NaN,13.37,1021.92,59.08,13.64,32.5,34.3,2.8,2.9,340.5,342.2,1.4,1.6,NaN, NaN,14.6,260.6,257.5,1104971317,1104971317,1,3.4,001717,001717,251.7,32.015532,-119.229923,-0.11,NaN,NaN,15.791, NaN,NaN,NaN, NaN, NaN
20050106,002908,176727,32.015412,-119.230532,4.3,15.813,33.177,41.677,188.03,0.0,1.501,15.582,15.553, NaN,24.388,   NaN,13.37,1021.95,59.01,13.64,37.9,39.2,1.9,1.8,350.0,357.8,1.2,1.2,NaN, NaN,16.0,255.5,262.1,1104971348,1104971347,1,2.9,001747,001747,245.5,32.015428,-119.230372,-0.16,NaN,NaN,15.817, NaN,NaN,NaN, NaN, NaN
20050106,002937,176755,32.015303,-119.230832,4.3,15.816,33.176,41.678,182.50,0.0,1.482,15.572,15.547, NaN,24.386,   NaN,13.41,1021.95,59.42,13.67,36.4,31.4,1.5,1.4,347.4,350.4,0.9,0.8,NaN, NaN,15.9,240.0,265.4,1104971377,1104971377,1,1.9,001776,001777,224.0,32.015367,-119.230708,0.16,NaN,NaN,15.820, NaN,NaN,NaN, NaN, NaN
20050106,003007,176785,32.015188,-119.231020,4.3,15.824,33.170,41.680,178.52,0.0,1.520,15.572,15.546, NaN,24.380,   NaN,13.43,1021.97,59.66,13.72,37.9,33.4,1.4,1.2,287.5,303.7,0.8,0.7,NaN, NaN,15.5,172.4,239.5,1104971408,1104971408,1,1.2,001807,001808,196.6,32.015298,-119.230947,0.21,NaN,NaN,15.828, NaN,NaN,NaN, NaN, NaN
20050106,003037,176816,32.015117,-119.231083,4.3,15.832,33.168,41.685,173.75,0.0,1.539,15.578,15.549, NaN,24.376,   NaN,13.42,1021.95,59.24,13.69,54.2,62.6,1.4,1.1,261.1,289.9,1.0,0.8,NaN, NaN,15.5,95.5,177.3,1104971437,1104971437,1,0.8,001836,001837,173.3,32.015238,-119.231077,0.25,NaN,NaN,15.836, NaN,NaN,NaN, NaN, NaN
20050106,003107,176846,32.015050,-119.231133,4.2,15.840,33.168,41.692,170.48,0.0,1.501,15.576,15.551, NaN,24.374,   NaN,13.40,1021.92,58.74,13.64,73.9,105.8,1.0,1.2,267.8,296.3,0.9,1.1,NaN, NaN,16.6,71.9,149.9,1104971467,1104971467,1,0.5,001867,001867,158.0,32.015178,-119.231165,0.05,NaN,NaN,15.844, NaN,NaN,NaN, NaN, NaN
20050106,003138,176877,32.015002,-119.231148,4.3,15.840,33.174,41.699,166.99,0.0,1.501,15.576,15.549, NaN,24.379,   NaN,13.40,1021.88,58.53,13.63,90.2,130.3,0.7,1.3,287.1,303.3,0.7,1.2,NaN, NaN,16.4,212.5,162.8,1104971497,1104971497,1,0.4,001897,001897,152.0,32.015128,-119.231197,0.02,NaN,NaN,15.844, NaN,NaN,NaN, NaN, NaN
20050106,003207,176905,32.014942,-119.231127,4.4,15.831,33.190,41.709,159.63,0.0,1.520,15.575,15.548, NaN,24.394,   NaN,13.40,1021.90,58.58,13.64,96.6,141.5,0.4,1.1,295.3,309.1,0.7,1.2,NaN, NaN,16.4,233.3,223.4,1104971527,1104971527,1,0.8,001926,001927,155.9,32.015062,-119.231173,0.00,NaN,NaN,15.835, NaN,NaN,NaN, NaN, NaN
20050106,003237,176935,32.014848,-119.231115,4.3,15.839,33.186,41.712,155.88,0.0,1.501,15.563,15.537, NaN,24.389,   NaN,13.40,1021.92,58.65,13.67,93.7,146.9,0.2,0.9,332.4,319.6,0.7,1.1,NaN, NaN,17.1,119.0,122.5,1104971558,1104971558,1,1.5,001957,001958,165.2,32.014975,-119.231128,0.05,NaN,NaN,15.843, NaN,NaN,NaN, NaN, NaN
20050106,003307,176966,32.014753,-119.231138,4.2,15.827,33.199,41.715,152.12,0.0,1.520,15.555,15.529, NaN,24.402,   NaN,13.40,1021.91,58.72,13.67,64.6,124.0,0.3,0.6,354.6,332.2,0.7,0.8,NaN, NaN,18.1,234.6,152.0,1104971587,1104971587,1,0.9,001987,001987,169.7,32.014887,-119.231137,-0.07,NaN,NaN,15.831, NaN,NaN,NaN, NaN, NaN
20050106,003337,176996,32.014672,-119.231145,4.2,15.835,33.195,41.718,149.27,0.0,1.520,15.561,15.532, NaN,24.396,   NaN,13.43,1021.86,59.19,13.70,63.2,100.7,0.5,0.7,295.1,319.7,0.6,0.8,NaN, NaN,18.5,236.4,218.3,1104971617,1104971617,1,1.1,002016,002017,170.3,32.014805,-119.231155,-0.04,NaN,NaN,15.839, NaN,NaN,NaN, NaN, NaN
20050106,003408,177026,32.014592,-119.231163,4.3,15.843,33.190,41.720,145.43,0.0,1.539,15.565,15.538, NaN,24.391,   NaN,13.44,1021.85,59.40,13.72,69.3,120.4,0.5,0.8,285.5,310.9,0.6,0.9,NaN, NaN,18.0,91.9,169.4,1104971648,1104971647,1,0.3,002047,002047,169.0,32.014728,-119.231170,-0.20,NaN,NaN,15.847, NaN,NaN,NaN, NaN, NaN
20050106,003437,177055,32.014523,-119.231182,4.3,15.848,33.186,41.720,141.77,0.0,1.557,15.568,15.539, NaN,24.387,   NaN,13.44,1021.84,59.37,13.71,64.4,130.9,0.3,0.6,38.8,333.5,0.5,0.7,NaN, NaN,17.8,221.1,139.8,1104971677,1104971677,1,0.5,002077,002077,165.3,32.014658,-119.231190,-0.08,NaN,NaN,15.852, NaN,NaN,NaN, NaN, NaN
20050106,003508,177087,32.014463,-119.231200,4.3,15.823,33.206,41.719,138.31,0.0,1.539,15.568,15.543, NaN,24.408,   NaN,13.44,1021.86,59.30,13.69,63.3,146.8,0.1,0.5,43.3,9.0,0.4,0.5,NaN, NaN,16.9,210.2,217.3,1104971708,1104971708,1,0.5,002107,002108,160.2,32.014593,-119.231232,-0.02,NaN,NaN,15.827, NaN,NaN,NaN, NaN, NaN
20050106,003537,177115,32.014417,-119.231218,4.2,15.818,33.211,41.720,135.06,0.0,1.539,15.572,15.546, NaN,24.413,   NaN,13.45,1021.86,59.35,13.71,46.6,218.0,0.0,0.4,34.5,30.2,0.4,0.6,NaN, NaN,17.6,99.9,173.4,1104971737,1104971737,1,0.4,002137,002137,155.3,32.014542,-119.231262,-0.07,NaN,NaN,15.822, NaN,NaN,NaN, NaN, NaN
20050106,003608,177146,32.014370,-119.231232,4.3,15.804,33.223,41.720,130.63,0.0,1.576,15.572,15.546, NaN,24.426,   NaN,13.47,1021.87,59.60,13.70,38.3,254.5,0.0,0.4,36.8,39.9,0.4,0.6,NaN, NaN,17.1,215.5,240.0,1104971768,1104971767,1,1.0,002167,002167,153.3,32.014497,-119.231277,0.06,NaN,NaN,15.808, NaN,NaN,NaN, NaN, NaN
20050106,003638,177176,32.014302,-119.231207,4.3,15.791,33.232,41.718,127.95,0.0,1.520,15.569,15.542, NaN,24.435,   NaN,13.51,1021.86,60.18,13.74,35.7,64.7,0.1,0.4,26.9,24.7,0.4,0.5,NaN, NaN,16.4,250.8,226.9,1104971798,1104971798,1,1.2,002197,002198,162.5,32.014427,-119.231240,-0.03,NaN,NaN,15.795, NaN,NaN,NaN, NaN, NaN